Location: Newark
(36.1358°N, 115.1208°W)
Time: 06:28:46
(UTC+00:00)

Vanguard 1 Rocket - Pass Details

Date: 27 February 2020
Orbit: 650 x 4226 km, 34.3° (Epoch: 07 April)

Event Time Altitude Azimuth Distance (km) Brightness Sun altitude
Rises 13:53:45 0° 275° (W) 3,336 - -4.9°
Exits shadow 13:55:21 - 270° (W) 2,707 9.2 -4.5°
Reaches altitude 10° 13:56:47 10° 261° (W) 2,180 8.7 -4.2°
Maximum altitude 14:00:31 24° 207° (SSW) 1,351 8.1 -3.5°
Drops below altitude 10° 14:04:07 10° 153° (SSE) 2,084 9.8 -2.8°
Sets 14:06:56 0° 138° (SE) 3,148 11.1 -2.2°
